Back to catalog

BREEZE-M DEB

AliveHEO
NORAD 34259·DEBRIS·🇷🇺 Russia

Launched Feb 28, 2006 from Baikonur Cosmodrome

Loading…

Next Passes (next 24 hours)

TLE

FreshSource: Space-Track

Epoch: Sep 13, 2026, 17:46 UTC

1 34259U 06006CA  26256.74058630 -.00000046  00000-0  00000-0 0  9990
2 34259  51.1120  59.2635 4758543 105.8437 310.0992  5.08259260381978

Track BREEZE-M DEB in real time with AllMySat

Download on the App Store